| Date | Time | Temp. (oF) | Dew Point (oF) | Rel. Hum. (%) | Press. (in.) | Wind Dir. | Wind Speed (mph) | Hourly Rainfall (in.) |
|
|---|---|---|---|---|---|---|---|---|---|
| 1 | 05/21 | 00:00 | 45 | 44 | 98 | 29.97 | NNW | 0 | 0.00 |
| 2 | 05/20 | 23:00 | 47 | 45 | 96 | 29.97 | NNW | 0 | 0.01 |
| 3 | 05/20 | 22:00 | 48 | 46 | 93 | 29.97 | NNW | 0 | 0.00 |
| 4 | 05/20 | 21:00 | 50 | 47 | 91 | 29.96 | NNW | 1 | 0.01 |
| 5 | 05/20 | 20:00 | 52 | 49 | 92 | 29.97 | ENE | 5 | 0.01 |
| 6 | 05/20 | 19:00 | 51 | 49 | 96 | 29.96 | NNE | 10 | 0.01 |
| 7 | 05/20 | 18:00 | 50 | 50 | 100 | 29.94 | NNE | 13 | 0.02 |
| 8 | 05/20 | 17:00 | 50 | 50 | 100 | 29.95 | N | 6 | 0.02 |
| 9 | 05/20 | 16:00 | 51 | 50 | 100 | 29.95 | NE | 11 | 0.03 |
| 10 | 05/20 | 15:00 | 51 | 50 | 100 | 29.93 | ENE | 10 | 0.02 |
| 11 | 05/20 | 14:00 | 50 | 50 | 100 | 29.92 | ENE | 10 | 0.04 |
| 12 | 05/20 | 13:00 | 49 | 49 | 100 | 29.94 | NE | 12 | 0.03 |
| 13 | 05/20 | 12:00 | 49 | 49 | 100 | 29.96 | ENE | 11 | 0.04 |
| 14 | 05/20 | 11:00 | 49 | 49 | 100 | 29.97 | ENE | 4 | 0.03 |
| 15 | 05/20 | 10:00 | 50 | 50 | 100 | 29.97 | SE | 6 | 0.01 |
| 16 | 05/20 | 09:00 | 50 | 50 | 100 | 29.97 | ENE | 7 | 0.02 |
| 17 | 05/20 | 08:00 | 51 | 50 | 100 | 29.95 | ENE | 5 | 0.03 |
| 18 | 05/20 | 07:00 | 51 | 50 | 100 | 29.94 | ESE | 8 | 0.03 |
| 19 | 05/20 | 06:00 | 51 | 50 | 99 | 29.94 | E | 6 | 0.02 |
| 20 | 05/20 | 05:00 | 52 | 51 | 97 | 29.94 | E | 4 | 0.01 |
| 21 | 05/20 | 04:00 | 52 | 50 | 96 | 29.96 | NNE | 5 | 0.01 |
| 22 | 05/20 | 03:00 | 54 | 52 | 96 | 29.98 | ESE | 4 | 0.01 |
| 23 | 05/20 | 02:00 | 54 | 51 | 92 | 30.00 | ENE | 2 | 0.00 |
| 24 | 05/20 | 01:00 | 55 | 51 | 87 | 30.01 | E | 5 | 0.01 |